JBU2220 EGLL-KJFK

Flight info

Callsign JBU2220
Flight time N/A
Altitude 24000
Route CPT L9 ELWIS/N0452F320 L9 BUCGO/N0414F240 L9 ARPAK/N0452F320 DCT FELCA DCT FADZU DCT OFSOX DCT BANBA DCT DOLIP DCT LIMRI/M079F340 DCT 5230N02000W 5230N03000W 52N040W 4930N05000W DCT IBERG/N0450F360 N364A TUSKY DCT PLYMM PARCH4
Aircraft A321/M-SDE3FGHIRWY/LB1

Departure

Time N/A
Airport London Heathrow Airport (EGLL)

Arrival

Time 2026-05-06 12:25
Airport John F. Kennedy International Airport (KJFK)
Time Latitude Longitude Altitude Speed Heading
2026-05-06 12:07 40.73795 -72.98226 31105 ft 414 kts 222°
2026-05-06 12:07 40.71479 -73.00482 29458 ft 413 kts 225°
2026-05-06 12:08 40.69667 -73.03300 28062 ft 396 kts 244°
2026-05-06 12:08 40.68706 -73.06611 26771 ft 384 kts 261°
2026-05-06 12:08 40.68557 -73.10076 25788 ft 371 kts 270°
2026-05-06 12:08 40.68585 -73.13337 25592 ft 342 kts 269°
2026-05-06 12:09 40.68608 -73.16387 25100 ft 326 kts 269°
2026-05-06 12:09 40.68626 -73.19333 24346 ft 318 kts 269°
2026-05-06 12:09 40.68639 -73.22229 23544 ft 314 kts 268°
2026-05-06 12:09 40.68650 -73.25091 22593 ft 311 kts 268°
2026-05-06 12:10 40.68659 -73.27930 21685 ft 307 kts 268°
2026-05-06 12:10 40.68669 -73.30728 20804 ft 304 kts 268°
2026-05-06 12:10 40.68681 -73.33492 19952 ft 300 kts 269°
2026-05-06 12:10 40.69104 -73.36182 19126 ft 303 kts 287°
2026-05-06 12:11 40.70003 -73.38707 18281 ft 305 kts 291°
2026-05-06 12:11 40.70956 -73.41189 17365 ft 303 kts 291°
2026-05-06 12:11 40.71921 -73.43644 16510 ft 300 kts 291°
2026-05-06 12:11 40.72882 -73.46073 15675 ft 297 kts 290°
2026-05-06 12:12 40.73824 -73.48458 14893 ft 294 kts 290°
2026-05-06 12:12 40.74769 -73.50856 14125 ft 291 kts 290°
2026-05-06 12:12 40.75679 -73.53165 13806 ft 272 kts 289°
2026-05-06 12:12 40.76529 -73.55320 13377 ft 260 kts 289°
2026-05-06 12:13 40.77346 -73.57414 12789 ft 254 kts 288°
2026-05-06 12:13 40.78145 -73.59481 12148 ft 251 kts 288°
2026-05-06 12:13 40.78932 -73.61521 11547 ft 248 kts 288°
2026-05-06 12:13 40.79715 -73.63539 10964 ft 246 kts 289°
2026-05-06 12:14 40.80862 -73.65282 10735 ft 260 kts 316°
2026-05-06 12:14 40.82581 -73.66130 10555 ft 275 kts 349°
2026-05-06 12:14 40.84472 -73.65629 10251 ft 286 kts 28°
2026-05-06 12:14 40.85887 -73.63830 9878 ft 284 kts 67°
2026-05-06 12:15 40.86327 -73.61443 9644 ft 261 kts 101°
2026-05-06 12:15 40.85890 -73.59256 9360 ft 238 kts 126°
2026-05-06 12:15 40.85158 -73.57268 8991 ft 237 kts 127°
2026-05-06 12:15 40.84433 -73.55352 8651 ft 235 kts 127°
2026-05-06 12:16 40.83703 -73.53431 8335 ft 233 kts 127°
2026-05-06 12:16 40.82997 -73.51559 8183 ft 218 kts 128°
2026-05-06 12:16 40.82167 -73.50075 8011 ft 186 kts 150°
2026-05-06 12:16 40.81086 -73.49255 7198 ft 180 kts 173°
2026-05-06 12:17 40.79877 -73.49186 6583 ft 166 kts 195°
2026-05-06 12:17 40.78838 -73.49691 5956 ft 157 kts 213°
2026-05-06 12:17 40.78047 -73.50649 5350 ft 155 kts 231°
2026-05-06 12:17 40.77581 -73.51926 4746 ft 157 kts 249°
2026-05-06 12:18 40.77518 -73.53326 4450 ft 151 kts 268°
2026-05-06 12:18 40.77775 -73.54654 4295 ft 146 kts 275°
2026-05-06 12:18 40.78052 -73.55910 4165 ft 141 kts 274°
2026-05-06 12:18 40.78320 -73.57149 4012 ft 140 kts 274°
2026-05-06 12:19 40.78586 -73.58381 3895 ft 139 kts 273°
2026-05-06 12:19 40.78849 -73.59611 3774 ft 139 kts 274°
2026-05-06 12:19 40.79113 -73.60838 3662 ft 139 kts 273°
2026-05-06 12:19 40.79313 -73.62066 3541 ft 134 kts 262°
2026-05-06 12:20 40.79159 -73.63265 3434 ft 135 kts 243°
2026-05-06 12:20 40.78645 -73.64313 3257 ft 139 kts 225°
2026-05-06 12:20 40.77841 -73.65049 3077 ft 142 kts 213°
2026-05-06 12:20 40.76991 -73.65712 2891 ft 142 kts 214°
2026-05-06 12:21 40.76144 -73.66377 2689 ft 142 kts 215°
2026-05-06 12:21 40.75298 -73.67040 2499 ft 141 kts 215°
2026-05-06 12:21 40.74459 -73.67699 2315 ft 140 kts 216°
2026-05-06 12:21 40.73623 -73.68354 2128 ft 139 kts 216°
2026-05-06 12:22 40.72792 -73.69007 1942 ft 138 kts 215°
2026-05-06 12:22 40.71967 -73.69654 1756 ft 138 kts 216°
2026-05-06 12:22 40.71148 -73.70296 1566 ft 133 kts 215°
2026-05-06 12:22 40.70407 -73.70875 1399 ft 120 kts 214°
2026-05-06 12:23 40.69697 -73.71432 1249 ft 115 kts 214°
2026-05-06 12:23 40.69002 -73.71978 1085 ft 120 kts 213°
2026-05-06 12:23 40.68275 -73.72546 909 ft 123 kts 212°
2026-05-06 12:23 40.67523 -73.73126 753 ft 126 kts 211°
2026-05-06 12:24 40.66761 -73.73726 559 ft 129 kts 209°
2026-05-06 12:24 40.65980 -73.74334 384 ft 132 kts 209°
2026-05-06 12:24 40.65185 -73.74965 224 ft 131 kts 210°
2026-05-06 12:24 40.64390 -73.75590 53 ft 133 kts 210°
2026-05-06 12:25 40.63658 -73.76165 23 ft 102 kts 211°
2026-05-06 12:25 40.63317 -73.76433 22 ft 18 kts 224°
2026-05-06 12:25 40.63277 -73.76560 22 ft 15 kts 240°
2026-05-06 12:25 40.63241 -73.76698 19 ft 17 kts 278°
2026-05-06 12:26 40.63295 -73.76842 22 ft 18 kts 301°
2026-05-06 12:26 40.63359 -73.76985 23 ft 19 kts 300°
2026-05-06 12:26 40.63425 -73.77131 24 ft 19 kts 301°
2026-05-06 12:26 40.63494 -73.77284 23 ft 21 kts 301°
2026-05-06 12:27 40.63570 -73.77452 23 ft 22 kts 301°
2026-05-06 12:27 40.63642 -73.77603 22 ft 16 kts 306°
2026-05-06 12:27 40.63705 -73.77665 20 ft 11 kts
2026-05-06 12:27 40.63778 -73.77614 20 ft 14 kts 31°
2026-05-06 12:28 40.63867 -73.77544 20 ft 15 kts 31°
2026-05-06 12:28 40.63959 -73.77472 22 ft 16 kts 30°
2026-05-06 12:28 40.64057 -73.77396 22 ft 17 kts 31°
2026-05-06 12:28 40.64161 -73.77314 27 ft 17 kts 31°
2026-05-06 12:29 40.64271 -73.77228 23 ft 20 kts 30°
2026-05-06 12:29 40.64397 -73.77130 24 ft 22 kts 31°
2026-05-06 12:29 40.64537 -73.77090 22 ft 14 kts 359°
2026-05-06 12:29 40.64632 -73.77092 22 ft 14 kts 349°
2026-05-06 12:30 40.64715 -73.77162 22 ft 15 kts 304°
2026-05-06 12:30 40.64772 -73.77289 25 ft 16 kts 301°
2026-05-06 12:30 40.64828 -73.77410 23 ft 15 kts 301°
2026-05-06 12:30 40.64878 -73.77529 21 ft 14 kts 285°
2026-05-06 12:31 40.64847 -73.77608 23 ft 7 kts 238°
2026-05-06 12:31 40.64829 -73.77674 25 ft 8 kts 250°
2026-05-06 12:31 40.64843 -73.77736 24 ft 7 kts 299°
2026-05-06 12:31 40.64865 -73.77784 23 ft 3 kts 284°
2026-05-06 12:32 40.64858 -73.77791 23 ft 2 kts 225°
2026-05-06 12:32 40.64845 -73.77803 23 ft 1 kts 212°
2026-05-06 12:32 40.64840 -73.77807 23 ft 1 kts 211°
2026-05-06 12:32 40.64822 -73.77821 24 ft 2 kts 210°
2026-05-06 12:33 40.64815 -73.77826 23 ft 0 kts 210°
2026-05-06 12:33 40.64815 -73.77827 23 ft 0 kts 210°
2026-05-06 12:43 40.64819 -73.77823 23 ft 4 kts 210°
2026-05-06 12:43 40.64843 -73.77805 23 ft 4 kts 210°
2026-05-06 12:43 40.64861 -73.77790 25 ft 5 kts 211°
2026-05-06 12:43 40.64891 -73.77748 25 ft 11 kts 104°
2026-05-06 12:44 40.64858 -73.77674 23 ft 10 kts 124°
2026-05-06 12:44 40.64849 -73.77606 23 ft 5 kts 50°
2026-05-06 12:44 40.64880 -73.77537 21 ft 7 kts 95°
2026-05-06 12:44 40.64841 -73.77417 22 ft 16 kts 126°
2026-05-06 12:45 40.64789 -73.77327 24 ft 12 kts 122°
2026-05-06 12:45 40.64737 -73.77205 23 ft 16 kts 119°
2026-05-06 12:45 40.64582 -73.77088 22 ft 14 kts 184°
2026-05-06 12:46 40.64487 -73.77101 22 ft 16 kts 198°
2026-05-06 12:46 40.64446 -73.77180 23 ft 10 kts 268°
2026-05-06 12:46 40.64433 -73.77263 23 ft 12 kts 271°
2026-05-06 12:46 40.64415 -73.77363 23 ft 16 kts 225°
2026-05-06 12:47 40.64361 -73.77411 24 ft 7 kts 210°
2026-05-06 12:47 40.64321 -73.77441 23 ft 7 kts 210°
2026-05-06 12:47 40.64309 -73.77442 23 ft 7 kts 149°
2026-05-06 12:47 40.64297 -73.77425 24 ft 0 kts 125°
2026-05-06 12:49 40.64296 -73.77426 23 ft 0 kts 119°